Regional Weather Roundup
Issued by NWS

Home | Current Version | Previous Version | Graphics & Text | Print | Product List | Glossary On
Versions: 1 2 3 4 5 6 7 8 9 10 11 12 13 14 15 16 17 18 19 20 21 22 23 24 25 26 27 28 29 30 31 32 33 34 35 36 37 38 39 40 41 42 43 44 45 46 47 48 49 50
000
ASUS43 KBIS 200810
RWRND

NORTH DAKOTA REGIONAL WEATHER ROUNDUP
NATIONAL WEATHER SERVICE BISMARCK ND
300 AM CDT MON OCT 20 2014

NOTE: "FAIR" INDICATES FEW OR NO CLOUDS BELOW 12,000 FEET WITH NO
SIGNIFICANT WEATHER AND/OR OBSTRUCTIONS TO VISIBILITY.


NDZ001>003-009>011-017-200900-
NORTHWEST NORTH DAKOTA

CITY           SKY/WX    TMP DP  RH WIND       PRES   REMARKS
WILLISTON      CLEAR     39  33  79 SW5       29.99S
MINOT          PTCLDY    47  34  60 SW13      30.00R
MINOT AFB      CLEAR     39  35  84 W8        29.99R
$$

NDZ018>021-031>035-040>046-200900-
SOUTHWEST NORTH DAKOTA

CITY           SKY/WX    TMP DP  RH WIND       PRES   REMARKS
BISMARCK       MOCLDY    35  33  92 CALM      30.05R
DICKINSON      PTCLDY    41  35  79 S10       30.02S
GARRISON         N/A     37  32  82 CALM      30.02S
HETTINGER ARPT PTCLDY    34  29  82 CALM      30.06S
$$

NDZ004>008-012>016-024-026-027-054-200900-
NORTHEAST NORTH DAKOTA

CITY           SKY/WX    TMP DP  RH WIND       PRES   REMARKS
GRAND FORKS    CLEAR     38  35  89 W6        29.97R
GRND FRKS AFB  CLEAR     42  38  86 NW7       29.98R
DEVILS LAKE    CLEAR     39  32  75 NW6       29.98S
$$

NDZ022-023-025-028>030-036>039-047>053-200900-
SOUTHEAST NORTH DAKOTA

CITY           SKY/WX    TMP DP  RH WIND       PRES   REMARKS
FARGO          CLEAR     41  35  79 W5        29.97R
JAMESTOWN      CLEAR     41  36  82 W3        29.99S
$$




USA.gov is the U.S. government's official web portal to all federal, state and local government web resources and services.